DELTA 1 DEB, 7850

Orbit data source: Space-Track

DELTA 1 DEB, 7850 is space debris in SSO originally from a launch on Sun, 23 Jul 1972 UTC launched from the Air Force Western Test Range (AFWTR). Debris objects in space refer to the collection of defunct objects orbiting the Earth. Examples of debris include non-operational satellites, rocket bodies, and fragments generated from explosions, collisions, or faulty payload assembly.

Loading next visibility...
Identifier
7850, 1972-058W
Orbit
SSO
Country
Flag of USUS
Related business
Manufacturer
Unknown
Mission
Spacecraft
Bus & Motor
Unknown
Mass
Unknown
Launch date (UTC)
1972-07-23 (53 years ago)
Launch vehicle
Unknown
Launch site
Air Force Western Test Range (AFWTR)
Object type
Payload
Rocket body
Debris
Shape & HBR
Unknown shape, 0.5 m
Radar Cross Section
Small (<0.1 m²)

Expand to show TLE details & history
Last TLE update: 16 hours ago

TLE from 16 hours ago
0 DELTA 1 DEB
1 07850U 72058W   25293.85963980  .00008885  00000-0  16243-2 0  9998
2 07850  98.2508 244.4466 0161683  88.4080 273.5632 14.57948751585273
Epoch: 2025-10-20T20:37Z
TLE epoch observation values (Epoch: 2025-10-20T20:37:52.878Z)
Latitude
0.00001°
Longitude
-94.57963°
Altitude
697.519 km
Speed
7.51 km/s
True Right ascension
16h 17m 47s
True Declination
0° 00' 00"
Sunlit
Object was in daylight at epoch
Visualization orbit readout
Latitude
Unknown
Longitude
Unknown
Altitude
Unknown
Speed
Unknown
Apparent Right ascension
Unknown
Apparent Declination
Unknown
Sunlit
N/A
Visualization observer readout
Local Sidereal Time
07:58:25
Azimuth
Unknown
Elevation
Unknown
Doppler factor
Unknown
Orbital elements
Apogee altitude
811.281 km
Perigee altitude
582.499 km
Semi-major axis
7,075.027 km
Eccentricity
0.01617
Inclination
98.2508°
RAAN
244.4466°
Arg. of periapsis
88.408°
True anomaly
271.71203°
Mean anomaly
273.5632°
Eccentric anomaly
272.63781°
Mean motion
3.64713 °/min
Orbital period
98.71 mins
BSTAR
0.0016243
Loading maneuver chart data...
Computing Atmospheric mass density...

Documentation

Showing up to 5 results
|